Regional Weather Roundup
Issued by NWS Kansas City/Pleasant Hill, MO

Home | Current Version | Previous Version | Graphics & Text | Print | Product List | Glossary Off
Versions: 1 2 3 4 5 6 7 8 9 10 11 12 13 14 15 16 17 18 19 20 21 22 23 24 25 26 27 28 29 30 31 32 33 34 35 36 37 38 39 40 41 42 43 44 45 46 47 48 49 50

000
ASUS43 KEAX 111910
RWREAX

WEATHER ROUNDUP FOR EASTERN KANSAS AND NORTHWEST MISSOURI
NATIONAL WEATHER SERVICE KANSAS CITY/PLEASANT HILL MO
100 PM CST MON DEC 11 2017

KSZ040-057-103>105-MOZ028-029-037-043-112000-
...KANSAS CITY METROPOLITAN AREA...

CITY           SKY/WX    TMP DP  RH WIND       PRES   REMARKS
K.C. INTL      MOSUNNY   56  25  30 NW24G31   29.96R
K.C. DOWNTOWN  SUNNY     57  25  29 NW21G37   29.95R
LEES SUMMIT    CLOUDY    57  24  28 NW30G37   29.95F
OLATHE - IXD   CLOUDY    54  20  26 NW24G36   29.99F
OLATHE - OJC   MOSUNNY   53  21  28 NW14G30   29.97F
LAWRENCE       MOSUNNY   56  21  25 W26G40    30.00R

$$

MOZ001>008-011>017-020>025-030>033-038>040-044>046-053-054-112000-
...NORTHERN AND CENTRAL MISSOURI...

CITY           SKY/WX    TMP DP  RH WIND       PRES   REMARKS
ST. JOSEPH     MOSUNNY   55  30  38 NW31G40   29.97R
MOSBY          CLEAR     54  23  30 NW20G33   29.95R
WARRENSBURG    MOSUNNY   55  23  28 W23G37    29.93F
WHITEMAN AFB   MOSUNNY   56  23  27 NW18G30   29.88F
CLINTON        CLOUDY    54  21  28 NW14G23   29.96F
SEDALIA        SUNNY     56  25  30 NW23G31   29.92F
WARSAW         NOT AVBL
CHILLICOTHE      N/A     52  28  39 NW18G38   29.91R
KIRKSVILLE     CLOUDY    50  30  46 NW26G45   29.81R

$$

MOZ041-047>049-056>058-063>065-088>090-097-112000-
...EASTERN AND SOUTHERN MISSOURI...

CITY           SKY/WX    TMP DP  RH WIND       PRES   REMARKS
ST. LOUIS INTL CLOUDY    56  21  25 W23G30    29.77F
SPIRIT OF STL  MOSUNNY   56  21  25 W25G36    29.79R
COLUMBIA       MOSUNNY   53  24  32 W21G32    29.85F
JEFFERSON CITY CLOUDY    53  23  31 W18G33    29.88S
ROLLA          CLOUDY    55  20  25 W21G33    29.88R
OSAGE BEACH    CLOUDY    53  21  28 W10G24    29.92S
SPRINGFIELD    MOSUNNY   58  19  22 W20G32    29.95F
BRANSON        MOSUNNY   66  14  13 NW12G21   29.96F
JOPLIN         MOSUNNY   62  21  20 NW15G21   30.01F
WEST PLAINS    SUNNY     66  14  13 W20G29    29.89F

$$

IAZ060-094-KSZ022-034>040-054-083-096-NEZ052-066-093-112000-
...KANSAS...SOUTHEAST NEBRASKA AND IOWA...

CITY           SKY/WX    TMP DP  RH WIND       PRES   REMARKS
TOPEKA         PTSUNNY   57  22  25 NW23G31   30.02R
MANHATTAN      MOSUNNY   58  21  24 NW15G24   30.07S
EMPORIA        MOSUNNY   57  16  20 NW22G35   30.04F
CHANUTE        SUNNY     64  15  15 NW17G28   30.02F
WICHITA        MOSUNNY   67  14  13 NW31G39   30.09F
OMAHA          CLOUDY    48  31  51 NW25G33   29.98R
LINCOLN        CLOUDY    50  29  44 NW30G43   30.06R
FALLS CITY     MOSUNNY   52  28  39 NW26G44   29.99R
LAMONI         CLOUDY    46  31  55 NW28G40   29.87S
DES MOINES     LGT RAIN  44  32  62 NW24G37   29.83R WCI  35

$$




USA.gov is the U.S. government's official web portal to all federal, state and local government web resources and services.